Estación Meteorológica Peña el Pijo (Robertgarden) [ 07/12/20 04:02:53 CEST ]

Fecha Hora Presion(HPa) Temp (°C) Humedad % Rocio (°C) Viento ( m/s) Direccion Lluvia 1Hora(mm) Lluvia 24H(mm) LLuvia Total(mm)
2020-Jan-10 01:09:09 1012.500 - - - - NNE     39.88
2020-Jan-10 02:13:06 1012.400 - - - - NNE     39.88
2020-Jan-10 03:08:54 1012.500 - - - - NNE     39.88
2020-Jan-10 04:09:11 1012.500 - - - - NNE     39.88
2020-Jan-10 05:09:22 1012.200 - - - - NNE     39.88
2020-Jan-10 06:09:16 1012.200 - - - - NNE     39.88
2020-Jan-10 07:09:17 1012.000 - - - - NNE     39.88
2020-Jan-10 08:09:02 1012.300 - - - - NNE     39.88
2020-Jan-10 09:09:08 1013.100 - - - - NNE     39.88
2020-Jan-10 10:09:29 1013.400 - - - - NNE     39.88
2020-Jan-10 11:09:09 1013.800 - - - - NNE     39.88
2020-Jan-10 12:09:01 1013.300 - - - - NNE     39.88
2020-Jan-10 13:09:01 1012.100 - - - - NNE     39.88
2020-Jan-10 14:08:58 1011.900 - - - - NNE     39.88
2020-Jan-10 15:09:08 1012.100 - - - - NNE     39.88
2020-Jan-10 16:09:01 1011.800 - - - - NNE     39.88
2020-Jan-10 17:09:16 1012.400 - - - - NNE     39.88
2020-Jan-10 18:09:29 1012.700 - - - - NNE     39.88
2020-Jan-10 19:08:55 1013.600 - - - - NNE     39.88
2020-Jan-10 20:09:47 1014.400 - - - - NNE     39.88
2020-Jan-10 21:09:11 1014.800 - - - - NNE     39.88
2020-Jan-10 22:09:10 1015.300 - - - - NNE     39.88
2020-Jan-10 23:09:04 1015.700 - - - - NNE     39.88

Temperatura Máxima:    Temperatura Mínima:
Presión Máxima:1015.700 Hpa    Presión Mínima:1011.800 Hpa


Volver